[[{"header":{"parameterUnit":"m.s-1","parameterCategory":1,"la1":30.2991,"la2":30.254,"lo1":-89.0895,"lo2":-89.0444,"dy":0.0017,"dx":0.0017,"nx":28,"ny":28,"refTime":"2025-04-07T21:00:00:Z","depth":0,"parameterNumber":2,"parameterNumberName":"U-component_of_WINDS"},"data":[0,0,0,0,0,0,0,0,0,0,0,0,0,0,0,0,0,0,0,0,0,0,0,0,0,0,0,0,0,0,0,0,0,0,0,0,0,0,0,0,0,0,0,0,0,0,0,0,0,0,0,0,0,0,0,0,0,0,0.7454,0.7453,0,0.7422,0.7422,0.7422,0.7415,0.7415,0.7416,0.7416,0.7384,0.7383,0.7381,0,0,0,0,0,0,0,0,0,0,0,0,0,0.7509,0.7508,0.7454,0.7453,0.7453,0.7422,0.7422,0.7422,0.7415,0.7415,0.7416,0.7416,0.7384,0.7383,0.7381,0,0,0,0,0,0,0,0,0,0,0,0,0,0.7482,0.7508,0.7454,0.7446,0.7445,0.7422,0.7422,0.7421,0.7415,0.7415,0.7416,0.7416,0.7384,0.7383,0.7381,0.7364,0,0,0.7376,0.7376,0,0,0,0,0,0,0,0,0.7484,0.748,0.7448,0.7447,0.7445,0.7423,0.743,0.7402,0.7415,0.7426,0.7416,0.7416,0.7396,0.7394,0.7387,0.7363,0.7361,0.7376,0.7375,0.7374,0.7374,0,0,0,0,0,0,0,0.7485,0.7481,0.7441,0.7447,0.7446,0.7444,0.7441,0.7424,0.741,0.7425,0.7425,0.7421,0.7396,0.7389,0.7386,0.7361,0.7376,0.7375,0.7374,0.7373,0.7321,0.7321,0,0,0,0,0,0,0.7489,0.7483,0.7442,0.744,0.7466,0.7443,0.7439,0.743,0.741,0.7407,0.7421,0.7421,0.7391,0.7388,0.7385,0.7364,0.7374,0.7373,0.7372,0.7322,0.7321,0.7321,0,0,0,0,0,0,0.749,0.7485,0.7444,0.7461,0.7456,0.7442,0.7431,0.7429,0.7422,0.7407,0.7404,0.7416,0.7391,0.7387,0.737,0.7363,0.7372,0.7371,0.7322,0.7322,0.7321,0.7322,0,0,0,0,0,0,0.7491,0.7485,0.7478,0.7461,0.7455,0.7428,0.7431,0.7428,0.7419,0.7419,0.7401,0.7399,0.7391,0.7372,0.7368,0.7361,0.7369,0.7323,0.7322,0.7321,0.7322,0.7321,0.732,0,0,0,0,0,0.7493,0.748,0.7478,0.7473,0.7446,0.7428,0.7424,0.7416,0.7419,0.7412,0.7402,0.74,0.7365,0.737,0.7366,0.7358,0.7323,0.7322,0.7321,0.7323,0.7321,0.732,0,0,0,0,0,0,0.7496,0.7477,0.7475,0.7456,0.7443,0.7427,0.7418,0.7415,0.7401,0.7402,0.7392,0.7388,0.7371,0.7363,0.7369,0.7341,0.7344,0.7342,0.7347,0.7345,0.7344,0.7346,0.7368,0,0,0,0,0,0.7495,0.7481,0.7465,0.745,0.7444,0.7432,0.7423,0.7418,0.7405,0.74,0.7389,0.7376,0.7363,0.7354,0.734,0.7321,0.7318,0.7314,0.7313,0.7312,0.7311,0.7301,0.7299,0.7318,0.7318,0.7318,0,0,0.7491,0.7479,0.7471,0.745,0.744,0.7426,0.7427,0.7413,0.7403,0.7398,0.738,0.7372,0.7357,0.7339,0.733,0.7332,0.7305,0.7311,0.7311,0.7309,0.73,0.7298,0.7296,0.7317,0.7318,0.7318,0,0,0.7477,0.7467,0.7453,0.7443,0.7428,0.742,0.7417,0.7401,0.7395,0.7377,0.7373,0.7362,0.7338,0.7328,0.732,0.7304,0.7301,0.73,0.7295,0.7285,0.7284,0.7283,0.7277,0.7275,0.7299,0.7299,0.7299,0,0.7474,0.7454,0.7446,0.7432,0.7423,0.7418,0.7404,0.7395,0.7376,0.737,0.7372,0.7343,0.7333,0.7312,0.7309,0.7302,0.7298,0.7301,0.7285,0.7283,0.7282,0.7277,0.7274,0.7299,0.7299,0.7299,0.7299,0,0.7451,0.7437,0.7428,0.741,0.74,0.7386,0.7376,0.7367,0.7364,0.7356,0.7339,0.7327,0.7311,0.7306,0.7302,0.7285,0.7286,0.7287,0.729,0.728,0.7275,0.7273,0.7298,0.7298,0.7298,0.7298,0,0,0.7437,0.7416,0.7413,0.7405,0.7388,0.7377,0.7364,0.7349,0.7341,0.7329,0.7317,0.7298,0.7299,0.729,0.7284,0.7276,0.7265,0.7277,0.7277,0.7275,0.7246,0.7246,0.7244,0.7263,0.7263,0.7263,0.7248,0,0.7421,0.7396,0.7389,0.7368,0.7355,0.7351,0.7339,0.7328,0.7321,0.731,0.7302,0.7289,0.729,0.7285,0.7277,0.7268,0.7259,0.7269,0.7253,0.7252,0.7256,0.7241,0.724,0.7226,0.7246,0.7245,0.7245,0,0.7399,0.7386,0.7364,0.735,0.7345,0.7334,0.732,0.7309,0.7297,0.7292,0.7283,0.7279,0.7265,0.7269,0.725,0.7257,0.7251,0.7246,0.7245,0.7242,0.7247,0.7238,0.7222,0.722,0.7242,0.7242,0.7242,0,0.7391,0.7368,0.7352,0.7346,0.7329,0.7322,0.7315,0.7303,0.7295,0.7283,0.7277,0.7264,0.7257,0.7247,0.7239,0.7243,0.7221,0.7225,0.7217,0.7217,0.7212,0.7212,0.7194,0.7208,0.7208,0.7208,0.7208,0,0.7373,0.736,0.7348,0.7338,0.7324,0.7316,0.7302,0.7295,0.7284,0.7273,0.727,0.7259,0.7251,0.7239,0.7234,0.7219,0.7216,0.7212,0.7211,0.7212,0.7212,0.7207,0.7207,0.7208,0.7208,0.7208,0.7208,0,0.7361,0.7353,0.7335,0.7321,0.7318,0.7307,0.7296,0.7286,0.728,0.7266,0.7262,0.7252,0.7239,0.7231,0.7214,0.721,0.7194,0.7193,0.7198,0.7197,0.719,0.719,0.7167,0.7164,0.718,0.718,0.718,0,0.735,0.734,0.7325,0.7317,0.731,0.7298,0.729,0.7283,0.7274,0.726,0.7253,0.7239,0.7228,0.7207,0.7198,0.7186,0.7184,0.7177,0.7182,0.7184,0.7184,0.7185,0.7184,0.7176,0.7176,0.7176,0.7175,0,0.7332,0.7328,0.7316,0.7304,0.7294,0.7283,0.7273,0.7267,0.7258,0.7249,0.7236,0.7227,0.721,0.7197,0.7184,0.7177,0.7175,0.7174,0.7172,0.7173,0.7176,0.7174,0.7195,0.7174,0.7175,0.7175,0.7175,0.7175,0.7319,0.731,0.7299,0.7286,0.7278,0.7268,0.7259,0.7251,0.724,0.7226,0.7223,0.7209,0.7198,0.718,0.7173,0.7162,0.7163,0.716,0.7159,0.7158,0.7158,0.7178,0.716,0.716,0.716,0.716,0.716,0,0.7301,0.7293,0.7282,0.7267,0.7258,0.7257,0.7246,0.7238,0.7225,0.7215,0.7205,0.719,0.7177,0.7168,0.7156,0.7149,0.7148,0.7146,0.7146,0.7144,0.7157,0.7161,0.7147,0.7147,0.7147,0.7147,0.7147,0.7147,0.729,0.7274,0.727,0.7251,0.7244,0.723,0.7223,0.7215,0.7207,0.7191,0.718,0.7175,0.7165,0.7152,0.7141,0.7139,0.7134,0.7133,0.713,0.7142,0.7143,0.7145,0.7148,0.7132,0.7132,0.7118,0.7118,0.7118]},{"header":{"parameterUnit":"m.s-1","parameterCategory":1,"la1":30.2991,"la2":30.254,"lo1":-89.0895,"lo2":-89.0444,"dy":0.0017,"dx":0.0017,"nx":28,"ny":28,"refTime":"2025-04-07T21:00:00:Z","depth":0,"parameterNumber":3,"parameterNumberName":"V-component_of_WINDS"},"data":[0,0,0,0,0,0,0,0,0,0,0,0,0,0,0,0,0,0,0,0,0,0,0,0,0,0,0,0,0,0,0,0,0,0,0,0,0,0,0,0,0,0,0,0,0,0,0,0,0,0,0,0,0,0,0,0,0,0,-5.9919,-5.9921,0,-6.0131,-6.0133,-6.0135,-6.0079,-6.0074,-6.007,-6.0066,-6.0279,-6.0289,-6.0298,0,0,0,0,0,0,0,0,0,0,0,0,0,-5.9457,-5.9466,-5.9918,-5.9921,-5.9924,-6.013,-6.0133,-6.0136,-6.0079,-6.0074,-6.0069,-6.0064,-6.0276,-6.0288,-6.0299,0,0,0,0,0,0,0,0,0,0,0,0,0,-5.9662,-5.9469,-5.9918,-5.992,-5.9923,-6.013,-6.0133,-6.0137,-6.008,-6.0074,-6.0068,-6.0062,-6.0272,-6.0286,-6.0301,-6.0517,0,0,-6.0345,-6.0351,0,0,0,0,0,0,0,0,-5.9651,-5.9679,-5.9917,-5.9921,-5.9923,-6.0072,-6.0049,-6.0264,-6.0082,-6.002,-6.0066,-6.0059,-6.0215,-6.0234,-6.0288,-6.0527,-6.0536,-6.0346,-6.0355,-6.0361,-6.0365,0,0,0,0,0,0,0,-5.9637,-5.967,-6.0002,-5.9921,-5.9925,-5.9909,-5.9931,-6.0089,-6.0151,-6.0025,-6.0022,-6.0048,-6.0216,-6.0274,-6.0292,-6.0539,-6.0346,-6.0359,-6.0368,-6.0373,-6.0964,-6.097,0,0,0,0,0,0,-5.9621,-5.9658,-5.9995,-6.0009,-5.9769,-5.9922,-5.9947,-6.003,-6.0149,-6.0161,-6.0053,-6.0044,-6.0252,-6.0275,-6.0299,-6.056,-6.0361,-6.0375,-6.0383,-6.0957,-6.0965,-6.0973,0,0,0,0,0,0,-5.9611,-5.9651,-5.9987,-5.9833,-5.9874,-5.9937,-6.0031,-6.0038,-6.0096,-6.017,-6.018,-6.0102,-6.0248,-6.0279,-6.0463,-6.0566,-6.0381,-6.0394,-6.0949,-6.0959,-6.0969,-6.1082,0,0,0,0,0,0,-5.9598,-5.9648,-5.9733,-5.9835,-5.9883,-6.015,-6.0038,-6.0047,-6.0122,-6.0113,-6.0218,-6.023,-6.0246,-6.0442,-6.0477,-6.0583,-6.0405,-6.094,-6.0953,-6.0966,-6.107,-6.1095,-6.1117,0,0,0,0,0,-5.9582,-5.9756,-5.9738,-5.9779,-5.999,-6.0156,-6.0183,-6.0199,-6.013,-6.0215,-6.0261,-6.0226,-6.0549,-6.0461,-6.0501,-6.0612,-6.0933,-6.0949,-6.0965,-6.1059,-6.109,-6.1117,0,0,0,0,0,0,-5.9665,-5.977,-5.9751,-5.9964,-6.0051,-6.0146,-6.0253,-6.0232,-6.034,-6.0327,-6.034,-6.0364,-6.0552,-6.06,-6.0501,-6.0826,-6.0731,-6.0755,-6.0789,-6.0819,-6.0842,-6.0828,-6.0417,0,0,0,0,0,-5.9708,-5.9835,-5.9919,-6.0099,-6.0144,-6.0191,-6.0264,-6.0268,-6.0359,-6.0395,-6.0456,-6.0544,-6.0664,-6.0744,-6.0859,-6.1075,-6.1096,-6.1171,-6.1194,-6.1214,-6.1235,-6.1351,-6.1384,-6.1025,-6.1025,-6.1024,0,0,-5.9798,-5.9871,-5.9951,-6.0117,-6.0186,-6.0315,-6.0223,-6.0364,-6.046,-6.0416,-6.0595,-6.0641,-6.074,-6.094,-6.1031,-6.0986,-6.1338,-6.1234,-6.1249,-6.126,-6.137,-6.1404,-6.1435,-6.1035,-6.1034,-6.1032,0,0,-6.0029,-6.0098,-6.0254,-6.0324,-6.0429,-6.0459,-6.0496,-6.0594,-6.0623,-6.0802,-6.0771,-6.0883,-6.1092,-6.1163,-6.1227,-6.148,-6.1451,-6.1517,-6.1642,-6.1755,-6.1783,-6.1808,-6.1898,-6.193,-6.1537,-6.1538,-6.1538,0,-6.0128,-6.0324,-6.0337,-6.0481,-6.0554,-6.052,-6.0678,-6.0744,-6.0881,-6.0931,-6.0878,-6.1137,-6.1201,-6.1417,-6.1478,-6.1531,-6.1572,-6.1506,-6.1778,-6.1804,-6.1827,-6.1913,-6.1947,-6.1545,-6.1544,-6.1543,-6.1543,0,-6.044,-6.0576,-6.0689,-6.0823,-6.0908,-6.1058,-6.1091,-6.1175,-6.1171,-6.1205,-6.1386,-6.1461,-6.159,-6.1641,-6.1638,-6.1856,-6.1824,-6.1774,-6.1679,-6.1869,-6.1949,-6.1982,-6.1556,-6.1553,-6.1551,-6.1549,0,0,-6.0734,-6.0869,-6.0911,-6.097,-6.1081,-6.1185,-6.1331,-6.1458,-6.153,-6.1624,-6.1746,-6.1921,-6.1875,-6.1947,-6.1951,-6.205,-6.2244,-6.1988,-6.199,-6.2033,-6.2487,-6.2524,-6.2563,-6.2224,-6.2231,-6.2236,-6.2479,0,-6.0975,-6.1235,-6.1249,-6.1484,-6.1608,-6.1576,-6.1702,-6.1783,-6.1818,-6.1926,-6.1963,-6.2088,-6.2018,-6.2061,-6.2157,-6.22,-6.2336,-6.2183,-6.2337,-6.2342,-6.2315,-6.2605,-6.2646,-6.2872,-6.251,-6.2516,-6.252,0,-6.1292,-6.1396,-6.1644,-6.1735,-6.1787,-6.1902,-6.2018,-6.2123,-6.2211,-6.2229,-6.2308,-6.2297,-6.2444,-6.2342,-6.2544,-6.2439,-6.2502,-6.2533,-6.2542,-6.2558,-6.2444,-6.263,-6.2944,-6.2978,-6.2569,-6.2565,-6.2562,0,-6.1481,-6.1683,-6.1857,-6.1908,-6.2018,-6.2099,-6.2148,-6.2231,-6.2305,-6.2405,-6.2453,-6.2569,-6.2632,-6.2721,-6.274,-6.2664,-6.2941,-6.2841,-6.2959,-6.2959,-6.3021,-6.3017,-6.3351,-6.306,-6.3059,-6.3059,-6.3058,0,-6.175,-6.1903,-6.1943,-6.2051,-6.2219,-6.2232,-6.2398,-6.2441,-6.2514,-6.2627,-6.2605,-6.2711,-6.2729,-6.2839,-6.2854,-6.3018,-6.3047,-6.3064,-6.3067,-6.3067,-6.3065,-6.311,-6.3095,-6.3068,-6.3066,-6.3064,-6.3062,0,-6.1992,-6.2025,-6.2212,-6.23,-6.2325,-6.2446,-6.252,-6.2622,-6.2652,-6.2795,-6.2829,-6.2877,-6.3004,-6.3032,-6.3183,-6.3192,-6.3387,-6.3374,-6.3358,-6.3357,-6.3474,-6.3463,-6.385,-6.3901,-6.3575,-6.3578,-6.3581,0,-6.2162,-6.2279,-6.2379,-6.2454,-6.2507,-6.2627,-6.2703,-6.2717,-6.2796,-6.2904,-6.2992,-6.3117,-6.3218,-6.3422,-6.3469,-6.3584,-6.3573,-6.37,-6.359,-6.3586,-6.3575,-6.3569,-6.358,-6.3722,-6.3726,-6.3729,-6.3731,0,-6.2461,-6.2471,-6.2581,-6.2697,-6.2788,-6.2879,-6.2966,-6.3028,-6.3053,-6.3143,-6.3273,-6.3351,-6.3504,-6.3628,-6.3742,-6.379,-6.3765,-6.3765,-6.3798,-6.3801,-6.3787,-6.3796,-6.3417,-6.3756,-6.3754,-6.3752,-6.3751,-6.375,-6.2673,-6.2775,-6.286,-6.2983,-6.3049,-6.313,-6.323,-6.3272,-6.3381,-6.3508,-6.3508,-6.365,-6.3732,-6.3883,-6.3937,-6.4047,-6.4007,-6.4055,-6.4068,-6.408,-6.4091,-6.3768,-6.4067,-6.4066,-6.4066,-6.4065,-6.4065,0,-6.2971,-6.3024,-6.3136,-6.3259,-6.3354,-6.3321,-6.3415,-6.3497,-6.3622,-6.3701,-6.3801,-6.3949,-6.4067,-6.4122,-6.4239,-6.4315,-6.4307,-6.4346,-6.4341,-6.4352,-6.412,-6.408,-6.4351,-6.4351,-6.4351,-6.4351,-6.435,-6.435,-6.3138,-6.3308,-6.3326,-6.3527,-6.3578,-6.3718,-6.3774,-6.3847,-6.391,-6.4077,-6.4176,-6.421,-6.4279,-6.4399,-6.4506,-6.4519,-6.4563,-6.4608,-6.4615,-6.4397,-6.4369,-6.4341,-6.4303,-6.4617,-6.4617,-6.4838,-6.484,-6.4841]}]]